Location: *
(43.7000°S, 168.7000°W)
Time: 14:30:49
(UTC+00:00)

FengYun 1-2 T - Pass Details

Date: 07 July 2020
Orbit: 845 x 882 km, 98.7° (Epoch: 04 August)

Event Time Altitude Azimuth Distance (km) Brightness Sun altitude
Rises 16:58:22 0° 20° (NNE) 3,413 7.8 -19.1°
Reaches altitude 10° 17:00:42 10° 21° (NNE) 2,489 7.1 -18.7°
Maximum altitude 17:06:14 78° 106° (ESE) 892 4.4 -17.7°
Drops below altitude 10° 17:11:54 10° 191° (SSW) 2,543 6.4 -16.7°
Sets 17:14:19 0° 192° (SSW) 3,493 7.1 -16.3°
